When you browse on this site, cookies collect data to enhance your experience and personalize the content and advertising you see.
Visit our Privacy Policy to learn more. By continuing to use the site, you agree to this use of cookies and data.
  • In Romania
  • List of Countries
  • For 7 days
  • Water Temperature
  • Weather Map
  • Weather Widgets
  • user-avatar
    Login

    Hourly Weather Mendoza

    Today, 30 May, Saturday

    Time Temperature Precipitation Wind Pressure Humidity
    00:00 +7°C° 0 mm 5 mps 699 mmHg 76%
    01:00 +6°C° 0 mm 5 mps 699 mmHg 75%
    02:00 +6°C° 0 mm 5 mps 699 mmHg 74%
    03:00 +5°C° 0 mm 4 mps 699 mmHg 74%
    04:00 +5°C° 0 mm 4 mps 699 mmHg 73%
    05:00 +5°C° 0 mm 4 mps 700 mmHg 70%
    06:00 +5°C° 0 mm 3 mps 700 mmHg 67%
    07:00 +5°C° 0 mm 3 mps 701 mmHg 64%
    08:00 +7°C° 0 mm 3 mps 701 mmHg 59%
    09:00 +7°C° 0 mm 3 mps 702 mmHg 53%
    10:00 +8°C° 0 mm 3 mps 702 mmHg 48%
    11:00 +8°C° 0 mm 3 mps 701 mmHg 44%
    12:00 +9°C° 0 mm 2 mps 701 mmHg 41%
    13:00 +9°C° 0 mm 2 mps 701 mmHg 37%
    14:00 +9°C° 0 mm 2 mps 701 mmHg 37%
    15:00 +9°C° 0 mm 2 mps 701 mmHg 36%
    16:00 +9°C° 0 mm 2 mps 701 mmHg 35%
    17:00 +9°C° 0 mm 2 mps 701 mmHg 36%
    18:00 +9°C° 0 mm 2 mps 701 mmHg 37%
    19:00 +8°C° 0 mm 2 mps 702 mmHg 38%
    20:00 +8°C° 0 mm 2 mps 702 mmHg 39%
    21:00 +8°C° 0 mm 2 mps 702 mmHg 40%
    22:00 +7°C° 0 mm 2 mps 702 mmHg 41%
    23:00 +7°C° 0 mm 2 mps 702 mmHg 46%

    Tomorrow, 31 May, Sunday

    Time Temperature Precipitation Wind Pressure Humidity
    00:00 +6°C° 0 mm 2 mps 702 mmHg 51%
    01:00 +6°C° 0 mm 2 mps 702 mmHg 56%
    02:00 +6°C° 0 mm 1 mps 701 mmHg 59%
    03:00 +6°C° 0 mm 1 mps 701 mmHg 62%
    04:00 +5°C° 0 mm 1 mps 701 mmHg 66%
    05:00 +6°C° 0 mm 1 mps 701 mmHg 65%
    06:00 +6°C° 0 mm 1 mps 701 mmHg 65%
    07:00 +6°C° 0 mm 1 mps 701 mmHg 64%
    08:00 +7°C° 0 mm 2 mps 701 mmHg 57%
    09:00 +9°C° 0 mm 2 mps 702 mmHg 50%
    10:00 +10°C° 0 mm 3 mps 702 mmHg 43%
    11:00 +11°C° 0 mm 3 mps 701 mmHg 41%
    12:00 +12°C° 0 mm 3 mps 701 mmHg 40%
    13:00 +13°C° 0 mm 3 mps 700 mmHg 38%
    14:00 +13°C° 0 mm 3 mps 700 mmHg 39%
    15:00 +13°C° 0 mm 3 mps 700 mmHg 40%
    16:00 +13°C° 0 mm 3 mps 700 mmHg 41%
    17:00 +11°C° 0 mm 3 mps 700 mmHg 43%
    18:00 +10°C° 0 mm 2 mps 701 mmHg 45%
    19:00 +9°C° 0 mm 2 mps 701 mmHg 48%
    20:00 +9°C° 0 mm 2 mps 701 mmHg 49%
    21:00 +9°C° 0 mm 1 mps 701 mmHg 51%
    22:00 +9°C° 0 mm 1 mps 701 mmHg 52%
    23:00 +9°C° 0 mm 1 mps 701 mmHg 53%

    Day after tomorrow, 1 June, Monday

    Time Temperature Precipitation Wind Pressure Humidity
    00:00 +8°C° 0 mm 1 mps 701 mmHg 53%
    01:00 +8°C° 0 mm 1 mps 701 mmHg 53%
    02:00 +8°C° 0 mm 1 mps 701 mmHg 54%
    03:00 +7°C° 0 mm 1 mps 700 mmHg 54%
    04:00 +7°C° 0 mm 1 mps 700 mmHg 55%
    05:00 +7°C° 0 mm 1 mps 701 mmHg 53%
    06:00 +7°C° 0 mm 1 mps 701 mmHg 52%
    07:00 +7°C° 0 mm 1 mps 701 mmHg 51%
    08:00 +10°C° 0 mm 1 mps 702 mmHg 45%
    09:00 +12°C° 0 mm 1 mps 702 mmHg 39%
    10:00 +14°C° 0 mm 2 mps 702 mmHg 32%
    11:00 +15°C° 0 mm 2 mps 701 mmHg 32%
    12:00 +16°C° 0 mm 2 mps 701 mmHg 31%
    13:00 +17°C° 0 mm 3 mps 700 mmHg 31%
    14:00 +17°C° 0 mm 2 mps 700 mmHg 32%
    15:00 +17°C° 0 mm 2 mps 700 mmHg 33%
    16:00 +16°C° 0 mm 2 mps 700 mmHg 34%
    17:00 +15°C° 0 mm 2 mps 700 mmHg 38%
    18:00 +14°C° 0 mm 2 mps 700 mmHg 41%
    19:00 +13°C° 0 mm 2 mps 701 mmHg 44%
    20:00 +12°C° 0 mm 2 mps 701 mmHg 45%
    21:00 +12°C° 0 mm 2 mps 701 mmHg 45%
    22:00 +11°C° 0 mm 1 mps 700 mmHg 46%
    23:00 +10°C° 0 mm 1 mps 700 mmHg 49%

    2 June, Tuesday

    Time Temperature Precipitation Wind Pressure Humidity
    00:00 +10°C° 0 mm 1 mps 699 mmHg 51%
    01:00 +9°C° 0 mm 1 mps 699 mmHg 53%
    02:00 +9°C° 0 mm 1 mps 699 mmHg 55%
    03:00 +8°C° 0 mm 1 mps 698 mmHg 56%
    04:00 +8°C° 0 mm 1 mps 698 mmHg 58%
    05:00 +8°C° 0 mm 1 mps 698 mmHg 59%
    06:00 +8°C° 0 mm 1 mps 698 mmHg 60%
    07:00 +8°C° 0 mm 1 mps 698 mmHg 61%
    08:00 +10°C° 0 mm 1 mps 698 mmHg 54%
    09:00 +12°C° 0 mm 1 mps 698 mmHg 47%
    10:00 +14°C° 0 mm 1 mps 698 mmHg 40%
    11:00 +15°C° 0 mm 1 mps 697 mmHg 38%
    12:00 +16°C° 0 mm 2 mps 697 mmHg 36%
    13:00 +17°C° 0 mm 2 mps 696 mmHg 34%
    14:00 +16°C° 0 mm 2 mps 695 mmHg 35%
    15:00 +16°C° 0 mm 1 mps 695 mmHg 36%
    16:00 +16°C° 0 mm 1 mps 694 mmHg 37%
    17:00 +15°C° 0 mm 2 mps 694 mmHg 40%
    18:00 +14°C° 0 mm 2 mps 694 mmHg 43%
    19:00 +13°C° 0 mm 2 mps 694 mmHg 46%
    20:00 +11°C° 0 mm 3 mps 694 mmHg 49%
    21:00 +11°C° 0 mm 3 mps 694 mmHg 51%
    22:00 +10°C° 0 mm 4 mps 694 mmHg 54%
    23:00 +8°C° 0 mm 5 mps 695 mmHg 61%

    3 June, Wednesday

    Time Temperature Precipitation Wind Pressure Humidity
    00:00 +6°C° 0 mm 7 mps 695 mmHg 67%
    01:00 +6°C° 0 mm 9 mps 695 mmHg 74%
    02:00 +5°C° 0.5 mm 8 mps 696 mmHg 77%
    03:00 +5°C° 0.5 mm 8 mps 696 mmHg 80%
    04:00 +4°C° 0.5 mm 8 mps 697 mmHg 83%
    05:00 +2°C° 2.4 mm 9 mps 698 mmHg 85%
    06:00 +2°C° 2.4 mm 10 mps 699 mmHg 87%
    07:00 +1°C° 2.4 mm 11 mps 700 mmHg 89%
    08:00 +2°C° 1.5 mm 10 mps 701 mmHg 85%
    09:00 +2°C° 1.5 mm 10 mps 702 mmHg 80%
    10:00 +3°C° 1.5 mm 9 mps 703 mmHg 75%
    11:00 +3°C° 0.6 mm 9 mps 703 mmHg 74%
    12:00 +3°C° 0.6 mm 9 mps 703 mmHg 73%
    13:00 +5°C° 0.6 mm 9 mps 703 mmHg 73%
    14:00 +3°C° 0.2 mm 9 mps 703 mmHg 74%
    15:00 +4°C° 0.2 mm 8 mps 703 mmHg 76%
    16:00 +4°C° 0.2 mm 8 mps 704 mmHg 77%
    17:00 +4°C° 0.1 mm 7 mps 704 mmHg 77%
    18:00 +4°C° 0.1 mm 6 mps 705 mmHg 76%
    19:00 +5°C° 0.1 mm 5 mps 705 mmHg 76%
    20:00 +5°C° 0.1 mm 5 mps 705 mmHg 76%
    21:00 +3°C° 0.1 mm 5 mps 705 mmHg 76%
    22:00 +4°C° 0.1 mm 4 mps 705 mmHg 77%
    23:00 +4°C° 0.1 mm 4 mps 705 mmHg 75%

    4 June, Thursday

    Time Temperature Precipitation Wind Pressure Humidity
    00:00 +4°C° 0.1 mm 3 mps 705 mmHg 74%
    01:00 +4°C° 0.1 mm 3 mps 704 mmHg 72%
    02:00 +4°C° 0.1 mm 3 mps 704 mmHg 72%
    03:00 +4°C° 0.1 mm 3 mps 704 mmHg 72%
    04:00 +4°C° 0.1 mm 3 mps 703 mmHg 71%
    05:00 +5°C° 0 mm 2 mps 703 mmHg 70%
    06:00 +5°C° 0 mm 2 mps 703 mmHg 69%
    07:00 +5°C° 0 mm 2 mps 703 mmHg 68%
    08:00 +7°C° 0 mm 1 mps 703 mmHg 66%
    09:00 +7°C° 0 mm 1 mps 703 mmHg 64%
    10:00 +8°C° 0 mm 1 mps 703 mmHg 63%
    11:00 +9°C° 0 mm 1 mps 702 mmHg 63%
    12:00 +9°C° 0 mm 1 mps 701 mmHg 63%
    13:00 +10°C° 0 mm 1 mps 701 mmHg 63%
    14:00 +9°C° 0 mm 2 mps 701 mmHg 61%
    15:00 +9°C° 0 mm 2 mps 701 mmHg 60%
    16:00 +9°C° 0 mm 2 mps 701 mmHg 59%
    17:00 +8°C° 0 mm 2 mps 701 mmHg 61%
    18:00 +7°C° 0 mm 2 mps 701 mmHg 64%
    19:00 +7°C° 0 mm 2 mps 701 mmHg 66%
    20:00 +6°C° 0 mm 2 mps 701 mmHg 66%
    21:00 +6°C° 0 mm 2 mps 701 mmHg 66%
    22:00 +6°C° 0 mm 2 mps 701 mmHg 65%
    23:00 +6°C° 0 mm 2 mps 700 mmHg 66%
    Show more